RYR465X LICA-LIME

Flight info

Callsign RYR465X
Flight time 1h 22m
Altitude 36000
Route ARBUM DCT EVINO DCT KUGIX DCT LOMED/N0336F180 L995 OSBUL
Aircraft B738/M-SDE2E3FGHIRWXY/LB1

Departure

Time 2026-05-05 21:58
Airport Lamezia Terme Sant'Eufemia International Airport (LICA)

Arrival

Time 2026-05-05 23:21
Airport Il Caravaggio International Airport (LIME)
Time Latitude Longitude Altitude Speed Heading
2026-05-05 21:37 38.90878 16.24454 30 ft 0 kts 51°
2026-05-05 21:54 38.90879 16.24459 31 ft 1 kts 72°
2026-05-05 21:54 38.90868 16.24472 29 ft 4 kts 157°
2026-05-05 21:54 38.90832 16.24450 30 ft 8 kts 229°
2026-05-05 21:55 38.90820 16.24361 31 ft 12 kts 283°
2026-05-05 21:55 38.90824 16.24239 30 ft 15 kts 242°
2026-05-05 21:55 38.90773 16.24130 31 ft 14 kts 265°
2026-05-05 21:55 38.90789 16.24006 31 ft 15 kts 279°
2026-05-05 21:56 38.90807 16.23858 31 ft 19 kts 277°
2026-05-05 21:56 38.90829 16.23673 31 ft 23 kts 279°
2026-05-05 21:56 38.90855 16.23450 30 ft 26 kts 278°
2026-05-05 21:56 38.90879 16.23223 31 ft 25 kts 271°
2026-05-05 21:57 38.90834 16.23021 31 ft 23 kts 238°
2026-05-05 21:57 38.90719 16.22909 32 ft 20 kts 167°
2026-05-05 21:57 38.90682 16.23012 33 ft 21 kts 98°
2026-05-05 21:57 38.90628 16.23480 34 ft 86 kts 98°
2026-05-05 21:58 38.90510 16.24488 31 ft 140 kts 98°
2026-05-05 21:58 38.90339 16.25874 275 ft 162 kts 99°
2026-05-05 21:58 38.90145 16.27254 921 ft 159 kts 99°
2026-05-05 21:58 38.89932 16.28701 1368 ft 174 kts 98°
2026-05-05 21:59 38.89690 16.30355 1601 ft 202 kts 100°
2026-05-05 21:59 38.89413 16.32243 1903 ft 226 kts 100°
2026-05-05 21:59 38.89110 16.34287 2502 ft 238 kts 104°
2026-05-05 21:59 38.88336 16.36111 3401 ft 234 kts 139°
2026-05-05 22:00 38.86892 16.36910 4481 ft 227 kts 180°
2026-05-05 22:00 38.85391 16.36439 5281 ft 225 kts 214°
2026-05-05 22:00 38.84313 16.35018 6025 ft 224 kts 246°
2026-05-05 22:00 38.84014 16.33117 6893 ft 217 kts 278°
2026-05-05 22:01 38.84545 16.31318 7671 ft 220 kts 306°
2026-05-05 22:01 38.85702 16.30008 8423 ft 227 kts 324°
2026-05-05 22:01 38.87080 16.28960 9080 ft 238 kts 326°
2026-05-05 22:01 38.88605 16.27847 9328 ft 266 kts 327°
2026-05-05 22:02 38.90255 16.26643 9921 ft 277 kts 326°
2026-05-05 22:02 38.91818 16.25168 10479 ft 287 kts 315°
2026-05-05 22:02 38.93335 16.23334 10664 ft 312 kts 313°
2026-05-05 22:02 38.94918 16.21309 11089 ft 327 kts 312°
2026-05-05 22:03 38.96526 16.19250 11763 ft 333 kts 313°
2026-05-05 22:03 38.98185 16.17147 12537 ft 337 kts 313°
2026-05-05 22:03 38.99869 16.15035 13326 ft 341 kts 313°
2026-05-05 22:03 39.01587 16.12896 14061 ft 346 kts 313°
2026-05-05 22:04 39.03328 16.10739 14762 ft 349 kts 313°
2026-05-05 22:04 39.05088 16.08563 15474 ft 352 kts 313°
2026-05-05 22:04 39.06864 16.06370 16156 ft 356 kts 313°
2026-05-05 22:04 39.08656 16.04156 16827 ft 359 kts 313°
2026-05-05 22:05 39.10470 16.01916 17512 ft 363 kts 313°
2026-05-05 22:05 39.12296 15.99659 18191 ft 366 kts 313°
2026-05-05 22:05 39.14147 15.97369 18746 ft 371 kts 313°
2026-05-05 22:05 39.16013 15.95059 19349 ft 373 kts 313°
2026-05-05 22:06 39.17888 15.92736 19984 ft 374 kts 313°
2026-05-05 22:06 39.19769 15.90405 20587 ft 376 kts 313°
2026-05-05 22:06 39.21660 15.88058 21178 ft 378 kts 313°
2026-05-05 22:06 39.23560 15.85699 21744 ft 381 kts 313°
2026-05-05 22:07 39.25474 15.83320 22305 ft 383 kts 313°
2026-05-05 22:07 39.27398 15.80927 22861 ft 385 kts 313°
2026-05-05 22:07 39.29376 15.78576 23404 ft 388 kts 315°
2026-05-05 22:07 39.31430 15.76286 23890 ft 391 kts 316°
2026-05-05 22:08 39.33515 15.74013 24332 ft 394 kts 316°
2026-05-05 22:08 39.35618 15.71728 24760 ft 396 kts 316°
2026-05-05 22:08 39.37727 15.69428 25190 ft 398 kts 316°
2026-05-05 22:08 39.39844 15.67106 25621 ft 400 kts 316°
2026-05-05 22:09 39.41970 15.64763 26059 ft 402 kts 316°
2026-05-05 22:09 39.44100 15.62409 26439 ft 405 kts 316°
2026-05-05 22:09 39.46249 15.60026 26785 ft 408 kts 316°
2026-05-05 22:09 39.48409 15.57629 27181 ft 410 kts 316°
2026-05-05 22:10 39.50578 15.55220 27586 ft 412 kts 316°
2026-05-05 22:10 39.52760 15.52795 27970 ft 414 kts 316°
2026-05-05 22:10 39.54948 15.50360 28336 ft 416 kts 316°
2026-05-05 22:10 39.57152 15.47906 28679 ft 419 kts 316°
2026-05-05 22:11 39.59366 15.45439 29030 ft 421 kts 316°
2026-05-05 22:11 39.61590 15.42958 29386 ft 423 kts 316°
2026-05-05 22:11 39.63792 15.40500 29715 ft 425 kts 316°
2026-05-05 22:11 39.66037 15.37991 30042 ft 427 kts 316°
2026-05-05 22:12 39.68292 15.35470 30322 ft 429 kts 316°
2026-05-05 22:12 39.70558 15.32934 30604 ft 430 kts 316°
2026-05-05 22:12 39.72874 15.30474 30972 ft 430 kts 319°
2026-05-05 22:12 39.75260 15.28135 31378 ft 429 kts 320°
2026-05-05 22:13 39.77684 15.25836 31553 ft 434 kts 321°
2026-05-05 22:13 39.80139 15.23530 31795 ft 436 kts 321°
2026-05-05 22:13 39.82589 15.21224 32181 ft 434 kts 321°
2026-05-05 22:13 39.85022 15.18923 32608 ft 431 kts 321°
2026-05-05 22:14 39.87439 15.16622 32949 ft 431 kts 321°
2026-05-05 22:14 39.89856 15.14308 33241 ft 431 kts 321°
2026-05-05 22:14 39.92272 15.11988 33589 ft 431 kts 320°
2026-05-05 22:14 39.94670 15.09679 34070 ft 427 kts 320°
2026-05-05 22:15 39.97053 15.07381 34365 ft 426 kts 320°
2026-05-05 22:15 39.99437 15.05078 34576 ft 427 kts 320°
2026-05-05 22:15 40.01826 15.02768 34821 ft 427 kts 320°
2026-05-05 22:15 40.04211 15.00460 35129 ft 426 kts 320°
2026-05-05 22:16 40.06587 14.98161 35424 ft 425 kts 320°
2026-05-05 22:16 40.08957 14.95865 35678 ft 425 kts 320°
2026-05-05 22:16 40.11328 14.93565 35921 ft 424 kts 320°
2026-05-05 22:16 40.13700 14.91263 36122 ft 426 kts 319°
2026-05-05 22:17 40.16090 14.88939 36180 ft 430 kts 319°
2026-05-05 22:17 40.18485 14.86610 36517 ft 427 kts 319°
2026-05-05 22:17 40.20852 14.84309 36959 ft 422 kts 319°
2026-05-05 22:17 40.23202 14.82023 37257 ft 420 kts 319°
2026-05-05 22:18 40.25548 14.79736 37449 ft 421 kts 319°
2026-05-05 22:18 40.27901 14.77439 37618 ft 422 kts 319°
2026-05-05 22:18 40.30254 14.75140 37827 ft 422 kts 319°
2026-05-05 22:18 40.32601 14.72845 38074 ft 421 kts 319°
2026-05-05 22:19 40.34955 14.70541 38063 ft 424 kts 319°
2026-05-05 22:19 40.39673 14.65919 38072 ft 422 kts 319°
2026-05-05 22:20 40.44349 14.61333 38083 ft 418 kts 318°
2026-05-05 22:20 40.48992 14.56769 38082 ft 415 kts 318°
2026-05-05 22:21 40.53607 14.52224 38084 ft 414 kts 318°
2026-05-05 22:21 40.58206 14.47685 38084 ft 413 kts 318°
2026-05-05 22:22 40.62779 14.43164 38091 ft 414 kts 318°
2026-05-05 22:22 40.67397 14.38590 38094 ft 417 kts 318°
2026-05-05 22:23 40.72042 14.33981 38088 ft 419 kts 318°
2026-05-05 22:23 40.76706 14.29347 38083 ft 421 kts 318°
2026-05-05 22:24 40.81387 14.24688 38079 ft 422 kts 318°
2026-05-05 22:24 40.86080 14.20008 38087 ft 423 kts 318°
2026-05-05 22:25 40.90785 14.15308 38089 ft 424 kts 318°
2026-05-05 22:25 40.95499 14.10589 38079 ft 425 kts 318°
2026-05-05 22:26 41.00219 14.05857 38089 ft 426 kts 318°
2026-05-05 22:26 41.04936 14.01119 38082 ft 425 kts 318°
2026-05-05 22:27 41.09644 13.96381 38089 ft 425 kts 318°
2026-05-05 22:27 41.14346 13.91641 38101 ft 424 kts 317°
2026-05-05 22:28 41.19038 13.86901 38083 ft 424 kts 317°
2026-05-05 22:28 41.23727 13.82156 38086 ft 423 kts 317°
2026-05-05 22:29 41.28405 13.77413 38084 ft 423 kts 317°
2026-05-05 22:29 41.33038 13.72707 38089 ft 421 kts 317°
2026-05-05 22:30 41.37681 13.67984 38087 ft 420 kts 317°
2026-05-05 22:30 41.42310 13.63253 38078 ft 416 kts 317°
2026-05-05 22:30 41.44569 13.60944 38070 ft 402 kts 317°
2026-05-05 22:31 41.46031 13.59456 38073 ft 399 kts 317°
2026-05-05 22:31 41.50478 13.54912 38095 ft 407 kts 317°
2026-05-05 22:32 41.55007 13.50266 38103 ft 415 kts 317°
2026-05-05 22:32 41.59627 13.45520 38094 ft 423 kts 317°
2026-05-05 22:33 41.64320 13.40693 38092 ft 428 kts 317°
2026-05-05 22:33 41.69054 13.35818 38086 ft 430 kts 317°
2026-05-05 22:34 41.73745 13.30984 38075 ft 420 kts 317°
2026-05-05 22:34 41.78358 13.26215 38087 ft 419 kts 317°
2026-05-05 22:35 41.82973 13.21429 38083 ft 420 kts 317°
2026-05-05 22:35 41.87592 13.16631 38057 ft 420 kts 316°
2026-05-05 22:36 41.92181 13.11865 38118 ft 415 kts 316°
2026-05-05 22:36 41.96733 13.07123 38089 ft 418 kts 316°
2026-05-05 22:37 42.01341 13.02304 38078 ft 421 kts 316°
2026-05-05 22:37 42.05969 12.97459 38073 ft 422 kts 316°
2026-05-05 22:38 42.10614 12.92590 38075 ft 424 kts 316°
2026-05-05 22:38 42.15274 12.87697 38062 ft 425 kts 316°
2026-05-05 22:39 42.19943 12.82787 38057 ft 425 kts 316°
2026-05-05 22:39 42.24600 12.77879 38059 ft 424 kts 316°
2026-05-05 22:40 42.29244 12.72975 38054 ft 424 kts 316°
2026-05-05 22:40 42.33884 12.68064 38062 ft 424 kts 316°
2026-05-05 22:41 42.38520 12.63149 38053 ft 423 kts 316°
2026-05-05 22:41 42.43147 12.58235 38043 ft 422 kts 316°
2026-05-05 22:42 42.47764 12.53320 38041 ft 422 kts 316°
2026-05-05 22:42 42.52341 12.48440 38057 ft 421 kts 315°
2026-05-05 22:43 42.56943 12.43523 38048 ft 421 kts 316°
2026-05-05 22:43 42.61538 12.38604 38058 ft 421 kts 315°
2026-05-05 22:44 42.66130 12.33679 38056 ft 420 kts 315°
2026-05-05 22:44 42.70707 12.28761 38046 ft 419 kts 315°
2026-05-05 22:45 42.75282 12.23834 38038 ft 419 kts 316°
2026-05-05 22:45 42.79871 12.18937 38050 ft 421 kts 319°
2026-05-05 22:46 42.84958 12.14828 38041 ft 426 kts 324°
2026-05-05 22:46 42.90136 12.10883 38040 ft 427 kts 324°
2026-05-05 22:47 42.95313 12.06888 38031 ft 428 kts 323°
2026-05-05 22:47 43.00477 12.02846 38073 ft 429 kts 323°
2026-05-05 22:48 43.05662 11.98758 38032 ft 431 kts 323°
2026-05-05 22:48 43.10860 11.94648 38030 ft 432 kts 323°
2026-05-05 22:49 43.16073 11.90519 38024 ft 433 kts 323°
2026-05-05 22:49 43.21297 11.86375 38033 ft 434 kts 323°
2026-05-05 22:50 43.26527 11.82217 38030 ft 435 kts 323°
2026-05-05 22:50 43.30182 11.79307 38013 ft 435 kts 323°
2026-05-05 22:51 43.35420 11.75129 38010 ft 435 kts 323°
2026-05-05 22:51 43.40652 11.70948 38009 ft 435 kts 323°
2026-05-05 22:52 43.44129 11.68163 38023 ft 434 kts 323°
2026-05-05 22:52 43.49167 11.64124 38020 ft 434 kts 322°
2026-05-05 22:53 43.50064 11.63404 38023 ft 434 kts 322°
2026-05-05 22:53 43.54732 11.59651 38001 ft 434 kts 322°
2026-05-05 22:54 43.59933 11.55464 38006 ft 432 kts 322°
2026-05-05 22:54 43.65082 11.51309 38023 ft 431 kts 322°
2026-05-05 22:55 43.70285 11.47102 38004 ft 430 kts 322°
2026-05-05 22:55 43.75403 11.42955 37991 ft 429 kts 322°
2026-05-05 22:56 43.80542 11.38783 38003 ft 427 kts 322°
2026-05-05 22:56 43.85682 11.34598 37571 ft 432 kts 322°
2026-05-05 22:56 43.88265 11.32493 37079 ft 430 kts 321°
2026-05-05 22:57 43.90842 11.30393 36581 ft 429 kts 321°
2026-05-05 22:57 43.93412 11.28297 36007 ft 430 kts 320°
2026-05-05 22:57 43.95990 11.26190 35414 ft 431 kts 320°
2026-05-05 22:57 43.98578 11.24070 34814 ft 432 kts 320°
2026-05-05 22:58 44.01170 11.21946 34210 ft 434 kts 319°
2026-05-05 22:58 44.03780 11.19800 33486 ft 436 kts 320°
2026-05-05 22:58 44.06395 11.17654 32851 ft 437 kts 320°
2026-05-05 22:58 44.09017 11.15500 32189 ft 439 kts 320°
2026-05-05 22:59 44.11656 11.13329 31496 ft 442 kts 321°
2026-05-05 22:59 44.14312 11.11142 30787 ft 445 kts 321°
2026-05-05 22:59 44.16984 11.08939 30186 ft 446 kts 322°
2026-05-05 22:59 44.19649 11.06745 29570 ft 445 kts 322°
2026-05-05 23:00 44.24930 11.02394 28501 ft 437 kts 322°
2026-05-05 23:00 44.27533 11.00243 27982 ft 433 kts 322°
2026-05-05 23:00 44.30116 10.98106 27478 ft 430 kts 322°
2026-05-05 23:01 44.32680 10.95979 26974 ft 427 kts 323°
2026-05-05 23:01 44.35228 10.93863 26461 ft 425 kts 323°
2026-05-05 23:01 44.37760 10.91758 25974 ft 423 kts 323°
2026-05-05 23:01 44.40282 10.89659 25478 ft 420 kts 323°
2026-05-05 23:02 44.42790 10.87571 24972 ft 419 kts 323°
2026-05-05 23:02 44.45285 10.85490 24459 ft 417 kts 323°
2026-05-05 23:02 44.47768 10.83418 23970 ft 415 kts 324°
2026-05-05 23:02 44.50247 10.81348 23437 ft 414 kts 323°
2026-05-05 23:03 44.52712 10.79287 22884 ft 412 kts 323°
2026-05-05 23:03 44.55164 10.77236 22367 ft 409 kts 323°
2026-05-05 23:03 44.57595 10.75200 21861 ft 406 kts 323°
2026-05-05 23:03 44.60007 10.73179 21373 ft 402 kts 323°
2026-05-05 23:04 44.62401 10.71171 20897 ft 399 kts 324°
2026-05-05 23:04 44.64776 10.69176 20416 ft 396 kts 324°
2026-05-05 23:04 44.67135 10.67192 19944 ft 394 kts 324°
2026-05-05 23:04 44.69475 10.65221 19485 ft 391 kts 323°
2026-05-05 23:05 44.71804 10.63259 18997 ft 390 kts 323°
2026-05-05 23:05 44.74126 10.61300 18511 ft 388 kts 323°
2026-05-05 23:05 44.76438 10.59347 18003 ft 387 kts 323°
2026-05-05 23:05 44.78706 10.57431 17512 ft 384 kts 323°
2026-05-05 23:06 44.81015 10.55479 17014 ft 381 kts 323°
2026-05-05 23:06 44.83277 10.53566 16546 ft 377 kts 324°
2026-05-05 23:06 44.85486 10.51694 16097 ft 374 kts 324°
2026-05-05 23:06 44.87734 10.49789 15636 ft 371 kts 324°
2026-05-05 23:07 44.89906 10.47945 15191 ft 368 kts 324°
2026-05-05 23:07 44.92089 10.46090 14764 ft 365 kts 324°
2026-05-05 23:07 44.94281 10.44226 14314 ft 362 kts 324°
2026-05-05 23:07 44.96400 10.42423 13872 ft 359 kts 324°
2026-05-05 23:08 44.98533 10.40605 13379 ft 357 kts 324°
2026-05-05 23:08 45.00652 10.38798 12914 ft 354 kts 324°
2026-05-05 23:08 45.02748 10.37009 12463 ft 351 kts 324°
2026-05-05 23:08 45.04832 10.35229 12022 ft 348 kts 324°
2026-05-05 23:09 45.06897 10.33463 11587 ft 346 kts 325°
2026-05-05 23:09 45.08945 10.31711 11165 ft 343 kts 325°
2026-05-05 23:09 45.10979 10.29969 10786 ft 339 kts 325°
2026-05-05 23:09 45.12965 10.28269 10649 ft 328 kts 325°
2026-05-05 23:10 45.14890 10.26620 10495 ft 319 kts 325°
2026-05-05 23:10 45.16759 10.25018 10355 ft 310 kts 325°
2026-05-05 23:10 45.18577 10.23457 10217 ft 301 kts 325°
2026-05-05 23:10 45.20345 10.21938 10098 ft 293 kts 325°
2026-05-05 23:11 45.22062 10.20460 9955 ft 285 kts 325°
2026-05-05 23:11 45.23755 10.19001 9670 ft 284 kts 325°
2026-05-05 23:11 45.25438 10.17549 9384 ft 282 kts 325°
2026-05-05 23:11 45.27109 10.16107 9105 ft 280 kts 325°
2026-05-05 23:12 45.28772 10.14672 8814 ft 279 kts 325°
2026-05-05 23:12 45.30425 10.13244 8533 ft 277 kts 325°
2026-05-05 23:12 45.32068 10.11824 8241 ft 276 kts 325°
2026-05-05 23:12 45.33705 10.10408 7973 ft 275 kts 326°
2026-05-05 23:13 45.35333 10.08999 7694 ft 274 kts 326°
2026-05-05 23:13 45.36957 10.07593 7415 ft 273 kts 326°
2026-05-05 23:13 45.38573 10.06194 7142 ft 271 kts 326°
2026-05-05 23:13 45.40183 10.04797 6872 ft 270 kts 326°
2026-05-05 23:14 45.41785 10.03407 6605 ft 269 kts 326°
2026-05-05 23:14 45.43371 10.02032 6459 ft 263 kts 326°
2026-05-05 23:14 45.44914 10.00693 6338 ft 256 kts 326°
2026-05-05 23:14 45.46414 9.99390 6220 ft 249 kts 326°
2026-05-05 23:15 45.47881 9.98114 6100 ft 245 kts 326°
2026-05-05 23:15 45.49317 9.96873 6003 ft 238 kts 329°
2026-05-05 23:15 45.50882 9.96243 5817 ft 237 kts 357°
2026-05-05 23:15 45.52536 9.96213 5548 ft 238 kts 358°
2026-05-05 23:16 45.54196 9.96150 5259 ft 240 kts 358°
2026-05-05 23:16 45.55868 9.96078 4971 ft 241 kts 358°
2026-05-05 23:16 45.57550 9.96003 4672 ft 243 kts 358°
2026-05-05 23:16 45.59235 9.95921 4404 ft 241 kts 358°
2026-05-05 23:17 45.60891 9.95830 4138 ft 234 kts 355°
2026-05-05 23:17 45.62321 9.95072 4007 ft 218 kts 315°
2026-05-05 23:17 45.62993 9.93258 3718 ft 209 kts 275°
2026-05-05 23:17 45.63081 9.91231 3450 ft 204 kts 277°
2026-05-05 23:18 45.63361 9.89272 3192 ft 200 kts 283°
2026-05-05 23:18 45.63711 9.87353 2916 ft 198 kts 284°
2026-05-05 23:18 45.64060 9.85467 2648 ft 194 kts 284°
2026-05-05 23:18 45.64395 9.83648 2406 ft 184 kts 284°
2026-05-05 23:19 45.64710 9.81931 2178 ft 172 kts 284°
2026-05-05 23:19 45.64906 9.80869 2010 ft 164 kts 284°
2026-05-05 23:19 45.65283 9.78818 1711 ft 156 kts 284°
2026-05-05 23:19 45.65464 9.77835 1569 ft 153 kts 284°
2026-05-05 23:20 45.65727 9.76386 1367 ft 149 kts 285°
2026-05-05 23:20 45.65991 9.74961 1187 ft 149 kts 284°
2026-05-05 23:20 45.66254 9.73524 996 ft 150 kts 285°
2026-05-05 23:20 45.66526 9.72075 796 ft 151 kts 285°
2026-05-05 23:21 45.66766 9.70791 786 ft 112 kts 284°
2026-05-05 23:21 45.66885 9.70144 786 ft 28 kts 280°
2026-05-05 23:21 45.66862 9.69939 786 ft 14 kts 244°
2026-05-05 23:21 45.66825 9.69845 786 ft 9 kts 242°
2026-05-05 23:22 45.66791 9.69781 786 ft 7 kts 213°
2026-05-05 23:22 45.66749 9.69759 786 ft 6 kts 195°
2026-05-05 23:22 45.66712 9.69745 786 ft 5 kts 195°
2026-05-05 23:22 45.66695 9.69738 786 ft 0 kts 195°